| time (UTC) | temp F | wind direction | speed MPH | gust MPH | rain 1hr in | rain 24hr in | rain mn in | humidity % | barometer mb |
| 20260507102242 | 56 | 129 | 2.0 | 7.0 | 0.00 | 0.00 | 0.00 | 78 | 1014.2 |
| 20260507101714 | 57 | 130 | 4.0 | 6.0 | 0.00 | 0.00 | 0.00 | 75 | 1014.2 |
| 20260507100243 | 56 | 96 | 2.0 | 4.0 | 0.00 | 0.00 | 0.00 | 77 | 1014.2 |
| 20260507095242 | 56 | 135 | 2.0 | 4.0 | 0.00 | 0.00 | 0.00 | 79 | 1014.1 |
| 20260507094242 | 56 | 149 | 4.0 | 7.0 | 0.00 | 0.00 | 0.00 | 80 | 1014.3 |
| 20260507093731 | 56 | 105 | 2.0 | 3.0 | 0.00 | 0.00 | 0.00 | 82 | 1014.1 |
| 20260507093151 | 55 | 207 | 3.0 | 4.0 | 0.00 | 0.00 | 0.00 | 82 | 1014.0 |
| 20260507091242 | 56 | 121 | 2.0 | 6.0 | 0.00 | 0.00 | 0.00 | 83 | 1014.2 |
| 20260507090243 | 56 | 153 | 1.0 | 7.0 | 0.00 | 0.00 | 0.00 | 84 | 1014.3 |
| 20260507085242 | 55 | 116 | 1.0 | 3.0 | 0.00 | 0.00 | 0.00 | 84 | 1014.0 |
| 20260507084242 | 55 | 90 | 0.0 | 4.0 | 0.00 | 0.00 | 0.00 | 84 | 1014.2 |
| 20260507083242 | 55 | 175 | 2.0 | 6.0 | 0.00 | 0.00 | 0.00 | 85 | 1014.1 |
| 20260507082242 | 55 | 176 | 1.0 | 3.0 | 0.00 | 0.00 | 0.00 | 84 | 1013.9 |
| 20260507081242 | 55 | 121 | 0.0 | 4.0 | 0.00 | 0.00 | 0.00 | 83 | 1013.9 |
| 20260507080242 | 55 | 78 | 1.0 | 2.0 | 0.00 | 0.00 | 0.00 | 82 | 1014.0 |
| 20260507075242 | 54 | 1 | 0.0 | 2.0 | 0.00 | 0.00 | 0.00 | 81 | 1013.9 |
| 20260507074724 | 54 | 355 | 0.0 | 0.0 | 0.00 | 0.00 | 0.00 | 80 | 1014.0 |
| 20260507073242 | 53 | 334 | 0.0 | 2.0 | 0.00 | 0.00 | 0.00 | 80 | 1014.0 |
| 20260507072245 | 53 | 1 | 1.0 | 2.0 | 0.00 | 0.00 | 0.00 | 78 | 1013.8 |
| 20260507071243 | 53 | 331 | 1.0 | 3.0 | 0.00 | 0.00 | 0.00 | 80 | 1013.7 |
| 20260507070716 | 53 | 12 | 2.0 | 3.0 | 0.00 | 0.00 | 0.00 | 79 | 1013.7 |
| 20260507065731 | 53 | 353 | 1.0 | 2.0 | 0.00 | 0.00 | 0.00 | 79 | 1013.5 |
| 20260507064242 | 53 | 355 | 1.0 | 4.0 | 0.00 | 0.00 | 0.00 | 77 | 1013.3 |
| 20260507063243 | 53 | 344 | 2.0 | 3.0 | 0.00 | 0.00 | 0.00 | 76 | 1013.3 |
| 20260507062242 | 53 | 12 | 2.0 | 4.0 | 0.00 | 0.00 | 0.00 | 77 | 1013.0 |
| 20260507061243 | 53 | 334 | 3.0 | 4.0 | 0.00 | 0.00 | 0.00 | 78 | 1013.1 |
| 20260507060721 | 52 | 341 | 3.0 | 6.0 | 0.00 | 0.00 | 0.00 | 78 | 1013.2 |
| 20260507055247 | 52 | 331 | 4.0 | 6.0 | 0.00 | 0.00 | 0.00 | 77 | 1013.1 |
| 20260507054242 | 52 | 308 | 4.0 | 6.0 | 0.00 | 0.00 | 0.00 | 77 | 1013.3 |
| 20260507053715 | 52 | 318 | 3.0 | 6.0 | 0.00 | 0.00 | 0.00 | 76 | 1013.3 |
| 20260507052242 | 52 | 349 | 3.0 | 6.0 | 0.00 | 0.00 | 0.00 | 75 | 1013.4 |
| 20260507051242 | 52 | 341 | 4.0 | 6.0 | 0.00 | 0.00 | 0.00 | 75 | 1013.3 |
| 20260507050242 | 52 | 348 | 3.0 | 4.0 | 0.00 | 0.00 | 0.00 | 75 | 1013.2 |
| 20260507045242 | 53 | 338 | 3.0 | 3.0 | 0.00 | 0.00 | 0.00 | 75 | 1013.4 |
| 20260507044243 | 53 | 340 | 2.0 | 3.0 | 0.00 | 0.00 | 0.00 | 75 | 1013.6 |
| 20260507043242 | 53 | 346 | 1.0 | 4.0 | 0.00 | 0.00 | 0.00 | 75 | 1013.5 |
| 20260507042724 | 54 | 336 | 2.0 | 4.0 | 0.00 | 0.00 | 0.00 | 75 | 1013.5 |
| 20260507041242 | 53 | 358 | 3.0 | 4.0 | 0.00 | 0.00 | 0.00 | 74 | 1013.5 |
| 20260507040242 | 53 | 329 | 4.0 | 6.0 | 0.00 | 0.00 | 0.00 | 70 | 1013.8 |
| 20260507035242 | 53 | 347 | 3.0 | 6.0 | 0.00 | 0.00 | 0.00 | 71 | 1013.7 |
| 20260507034244 | 53 | 342 | 3.0 | 4.0 | 0.00 | 0.00 | 0.00 | 69 | 1013.7 |
| 20260507033243 | 53 | 345 | 2.0 | 6.0 | 0.00 | 0.00 | 0.00 | 70 | 1013.7 |
| 20260507032243 | 53 | 338 | 3.0 | 6.0 | 0.00 | 0.00 | 0.00 | 69 | 1013.8 |
| 20260507031729 | 53 | 333 | 3.0 | 6.0 | 0.00 | 0.00 | 0.00 | 68 | 1013.9 |
| 20260507030244 | 52 | 343 | 3.0 | 6.0 | 0.00 | 0.00 | 0.00 | 69 | 1013.9 |
| 20260507025244 | 52 | 352 | 3.0 | 6.0 | 0.00 | 0.00 | 0.00 | 69 | 1014.1 |
| 20260507024724 | 53 | 344 | 4.0 | 7.0 | 0.00 | 0.00 | 0.00 | 68 | 1013.9 |
| 20260507023242 | 52 | 351 | 4.0 | 7.0 | 0.00 | 0.00 | 0.00 | 68 | 1014.2 |
| 20260507022736 | 52 | 339 | 4.0 | 7.0 | 0.00 | 0.00 | 0.00 | 68 | 1014.5 |
| 20260507021242 | 52 | 20 | 5.0 | 6.0 | 0.00 | 0.00 | 0.00 | 69 | 1014.7 |
| 20260507020735 | 52 | 339 | 4.0 | 7.0 | 0.00 | 0.00 | 0.00 | 68 | 1014.5 |
| 20260507015242 | 52 | 337 | 5.0 | 6.0 | 0.00 | 0.00 | 0.00 | 69 | 1014.6 |
| 20260507014242 | 51 | 343 | 3.0 | 6.0 | 0.00 | 0.00 | 0.00 | 73 | 1014.8 |
| 20260507013241 | 52 | 345 | 3.0 | 6.0 | 0.00 | 0.00 | 0.00 | 72 | 1015.1 |
| 20260507012242 | 52 | 341 | 4.0 | 7.0 | 0.00 | 0.00 | 0.00 | 71 | 1015.2 |
| 20260507011242 | 53 | 336 | 4.0 | 7.0 | 0.00 | 0.00 | 0.00 | 70 | 1015.1 |
| 20260507010255 | 53 | 347 | 4.0 | 6.0 | 0.00 | 0.00 | 0.00 | 69 | 1015.5 |
| 20260507005242 | 53 | 353 | 3.0 | 6.0 | 0.00 | 0.00 | 0.00 | 67 | 1015.7 |
| 20260507004727 | 53 | 335 | 4.0 | 7.0 | 0.00 | 0.00 | 0.00 | 67 | 1015.6 |
| 20260507003732 | 53 | 341 | 4.0 | 8.0 | 0.00 | 0.00 | 0.00 | 65 | 1015.7 |
| 20260507002242 | 53 | 350 | 6.0 | 8.0 | 0.00 | 0.00 | 0.00 | 66 | 1015.7 |
| 20260507001742 | 53 | 337 | 6.0 | 8.0 | 0.00 | 0.00 | 0.00 | 64 | 1015.8 |
| 20260507000242 | 53 | 342 | 3.0 | 7.0 | 0.00 | 0.00 | 0.00 | 62 | 1015.9 |
| 20260506235244 | 53 | 332 | 4.0 | 8.0 | 0.00 | 0.00 | 0.00 | 63 | 1015.9 |
| 20260506234241 | 53 | 350 | 7.0 | 9.0 | 0.00 | 0.00 | 0.00 | 65 | 1015.8 |
| 20260506233242 | 53 | 334 | 6.0 | 8.0 | 0.00 | 0.00 | 0.00 | 65 | 1015.8 |
| 20260506232247 | 53 | 344 | 7.0 | 10.0 | 0.00 | 0.00 | 0.00 | 64 | 1015.8 |
| 20260506231245 | 54 | 11 | 6.0 | 10.0 | 0.00 | 0.00 | 0.00 | 64 | 1015.8 |
| 20260506230255 | 53 | 347 | 5.0 | 8.0 | 0.00 | 0.00 | 0.00 | 66 | 1016.0 |
| 20260506225244 | 54 | 351 | 5.0 | 7.0 | 0.00 | 0.00 | 0.00 | 66 | 1016.1 |
| 20260506224242 | 54 | 343 | 5.0 | 10.0 | 0.00 | 0.00 | 0.00 | 64 | 1016.0 |
| 20260506223242 | 54 | 333 | 5.0 | 9.0 | 0.00 | 0.00 | 0.00 | 64 | 1016.2 |
| 20260506222244 | 54 | 344 | 5.0 | 11.0 | 0.00 | 0.00 | 0.00 | 66 | 1016.1 |
| 20260506221241 | 54 | 358 | 5.0 | 11.0 | 0.00 | 0.00 | 0.00 | 65 | 1016.4 |
| 20260506220241 | 54 | 357 | 9.0 | 11.0 | 0.00 | 0.00 | 0.00 | 65 | 1016.5 |
| 20260506215244 | 54 | 333 | 7.0 | 11.0 | 0.00 | 0.00 | 0.00 | 66 | 1016.3 |
| 20260506214242 | 54 | 333 | 7.0 | 9.0 | 0.00 | 0.00 | 0.00 | 66 | 1016.4 |
| 20260506213243 | 54 | 350 | 6.0 | 9.0 | 0.00 | 0.00 | 0.00 | 68 | 1016.4 |
| 20260506212243 | 54 | 357 | 6.0 | 8.0 | 0.00 | 0.00 | 0.00 | 70 | 1016.1 |
| 20260506211242 | 54 | 343 | 4.0 | 7.0 | 0.00 | 0.00 | 0.00 | 72 | 1016.1 |
| 20260506210242 | 55 | 337 | 3.0 | 9.0 | 0.00 | 0.00 | 0.00 | 70 | 1016.2 |
| 20260506205243 | 55 | 343 | 4.0 | 11.0 | 0.00 | 0.00 | 0.00 | 70 | 1015.9 |
| 20260506204242 | 54 | 337 | 3.0 | 6.0 | 0.00 | 0.00 | 0.00 | 72 | 1016.0 |
| 20260506203242 | 54 | 344 | 3.0 | 6.0 | 0.00 | 0.00 | 0.00 | 71 | 1016.0 |
| 20260506202243 | 55 | 352 | 4.0 | 7.0 | 0.00 | 0.00 | 0.00 | 71 | 1015.6 |
| 20260506201243 | 55 | 344 | 1.0 | 3.0 | 0.00 | 0.00 | 0.00 | 72 | 1015.8 |
| 20260506200243 | 55 | 341 | 3.0 | 4.0 | 0.00 | 0.00 | 0.00 | 71 | 1015.5 |
| 20260506195243 | 56 | 333 | 1.0 | 6.0 | 0.00 | 0.00 | 0.00 | 68 | 1015.5 |
| 20260506194243 | 56 | 350 | 0.0 | 9.0 | 0.00 | 0.00 | 0.00 | 68 | 1015.4 |
| 20260506193243 | 57 | 338 | 1.0 | 3.0 | 0.00 | 0.00 | 0.00 | 71 | 1015.4 |
| 20260506192242 | 57 | 26 | 1.0 | 3.0 | 0.00 | 0.00 | 0.00 | 69 | 1015.2 |
| 20260506191242 | 56 | 359 | 2.0 | 6.0 | 0.00 | 0.00 | 0.00 | 73 | 1015.2 |
| 20260506190243 | 56 | 23 | 0.0 | 1.0 | 0.00 | 0.00 | 0.00 | 75 | 1014.9 |
| 20260506185244 | 56 | 333 | 0.0 | 3.0 | 0.00 | 0.00 | 0.00 | 75 | 1014.8 |
| 20260506184243 | 56 | 344 | 0.0 | 2.0 | 0.00 | 0.00 | 0.00 | 74 | 1014.8 |
| 20260506183242 | 57 | 251 | 0.0 | 3.0 | 0.00 | 0.00 | 0.00 | 72 | 1014.7 |
| 20260506182230 | 57 | 21 | 1.0 | 3.0 | 0.00 | 0.00 | 0.00 | 75 | 1014.9 |
| 20260506181230 | 57 | 188 | 2.0 | 6.0 | 0.00 | 0.00 | 0.00 | 77 | 1014.8 |
| 20260506180230 | 58 | 268 | 0.0 | 6.0 | 0.00 | 0.00 | 0.00 | 79 | 1015.1 |
| 20260506174708 | 59 | 190 | 3.0 | 4.0 | 0.00 | 0.00 | 0.00 | 76 | 1014.9 |
| 20260506173230 | 59 | 130 | 2.0 | 8.0 | 0.00 | 0.00 | 0.00 | 76 | 1015.3 |
| 20260506172230 | 59 | 129 | 5.0 | 7.0 | 0.00 | 0.00 | 0.00 | 75 | 1015.3 |
| 20260506171230 | 60 | 269 | 0.0 | 7.0 | 0.00 | 0.00 | 0.00 | 76 | 1014.9 |
| 20260506170230 | 60 | 135 | 1.0 | 7.0 | 0.00 | 0.00 | 0.00 | 76 | 1015.2 |
| 20260506165230 | 59 | 97 | 1.0 | 8.0 | 0.00 | 0.00 | 0.00 | 77 | 1015.2 |
| 20260506164231 | 60 | 140 | 5.0 | 8.0 | 0.00 | 0.00 | 0.00 | 76 | 1014.9 |
| 20260506163229 | 60 | 141 | 5.0 | 9.0 | 0.00 | 0.00 | 0.00 | 75 | 1015.1 |
| 20260506162230 | 61 | 175 | 4.0 | 8.0 | 0.00 | 0.00 | 0.00 | 76 | 1015.2 |
| 20260506161709 | 60 | 122 | 3.0 | 9.0 | 0.00 | 0.00 | 0.00 | 75 | 1015.2 |
| 20260506160231 | 59 | 113 | 7.0 | 10.0 | 0.00 | 0.00 | 0.00 | 78 | 1015.2 |
| 20260506160149 | 60 | 134 | 1.0 | 9.0 | 0.00 | 0.00 | 0.00 | 77 | 1015.4 |
| 20260506154231 | 60 | 174 | 4.0 | 13.0 | 0.00 | 0.00 | 0.00 | 77 | 1015.4 |
| 20260506153230 | 60 | 246 | 3.0 | 10.0 | 0.00 | 0.00 | 0.00 | 76 | 1015.3 |
| 20260506152707 | 60 | 130 | 6.0 | 13.0 | 0.00 | 0.00 | 0.00 | 77 | 1015.3 |
| 20260506151231 | 61 | 171 | 6.0 | 13.0 | 0.00 | 0.00 | 0.00 | 75 | 1015.2 |
| 20260506150231 | 61 | 144 | 8.0 | 10.0 | 0.00 | 0.00 | 0.00 | 74 | 1015.3 |
| 20260506145230 | 62 | 102 | 6.0 | 13.0 | 0.00 | 0.00 | 0.00 | 71 | 1015.3 |
| 20260506144230 | 63 | 89 | 6.0 | 13.0 | 0.00 | 0.00 | 0.00 | 70 | 1015.3 |
| 20260506143230 | 64 | 140 | 8.0 | 11.0 | 0.00 | 0.00 | 0.00 | 71 | 1015.4 |
| 20260506142229 | 63 | 226 | 2.0 | 11.0 | 0.00 | 0.01 | 0.00 | 73 | 1015.7 |
| 20260506141243 | 64 | 119 | 6.0 | 14.0 | 0.00 | 0.01 | 0.00 | 70 | 1015.7 |
| 20260506140710 | 64 | 148 | 5.0 | 11.0 | 0.00 | 0.01 | 0.00 | 71 | 1015.6 |
| 20260506135230 | 63 | 112 | 2.0 | 13.0 | 0.00 | 0.02 | 0.00 | 71 | 1015.5 |
| 20260506134715 | 63 | 157 | 4.0 | 13.0 | 0.00 | 0.03 | 0.00 | 70 | 1016.0 |
| 20260506133230 | 63 | 135 | 6.0 | 10.0 | 0.00 | 0.03 | 0.00 | 69 | 1016.1 |
| 20260506132229 | 64 | 131 | 3.0 | 9.0 | 0.00 | 0.07 | 0.00 | 68 | 1016.2 |
| 20260506131230 | 63 | 190 | 5.0 | 13.0 | 0.00 | 0.08 | 0.00 | 70 | 1016.1 |
| 20260506130230 | 64 | 165 | 8.0 | 11.0 | 0.00 | 0.08 | 0.00 | 68 | 1016.1 |
| 20260506125230 | 66 | 122 | 2.0 | 4.0 | 0.00 | 0.08 | 0.00 | 56 | 1016.3 |
| 20260506124231 | 67 | 148 | 4.0 | 7.0 | 0.00 | 0.08 | 0.00 | 50 | 1016.3 |
| 20260506123231 | 65 | 298 | 0.0 | 9.0 | 0.00 | 0.08 | 0.00 | 55 | 1016.6 |
| 20260506122230 | 65 | 277 | 1.0 | 8.0 | 0.00 | 0.08 | 0.00 | 56 | 1016.5 |
| 20260506121230 | 64 | 8 | 3.0 | 8.0 | 0.00 | 0.08 | 0.00 | 58 | 1016.4 |
| 20260506120230 | 63 | 349 | 3.0 | 10.0 | 0.00 | 0.08 | 0.00 | 58 | 1016.6 |
| 20260506115229 | 63 | 99 | 2.0 | 9.0 | 0.00 | 0.08 | 0.00 | 61 | 1016.8 |
| 20260506114230 | 63 | 69 | 2.0 | 6.0 | 0.00 | 0.08 | 0.00 | 62 | 1016.9 |
| 20260506113720 | 62 | 341 | 3.0 | 6.0 | 0.00 | 0.08 | 0.00 | 63 | 1016.9 |
| 20260506112230 | 62 | 148 | 2.0 | 6.0 | 0.00 | 0.08 | 0.00 | 65 | 1017.0 |
| 20260506111230 | 62 | 38 | 3.0 | 6.0 | 0.00 | 0.08 | 0.00 | 66 | 1017.0 |
| 20260506110230 | 62 | 108 | 3.0 | 8.0 | 0.00 | 0.08 | 0.00 | 66 | 1017.3 |
| 20260506105230 | 63 | 307 | 6.0 | 6.0 | 0.00 | 0.08 | 0.00 | 67 | 1017.3 |
| 20260506104230 | 61 | 116 | 1.0 | 6.0 | 0.00 | 0.08 | 0.00 | 68 | 1017.3 |
| 20260506103230 | 61 | 232 | 2.0 | 6.0 | 0.00 | 0.08 | 0.00 | 72 | 1017.3 |